Time,TemperatureF,DewpointF,PressureIn,WindDirection,WindDirectionDegrees,WindSpeedMPH,WindSpeedGustMPH,Humidity,HourlyPrecipIn,Conditions,Clouds,dailyrainin,SolarRadiationWatts/m^2,SoftwareType,DateUTC
2013-05-11 00:00:00,46.5,33.4,30.06,SE,135,1.0,3.0,60,0.00,,,-99.99,0,WeatherLink 5.7,2013-05-11 06:00:00,
2013-05-11 00:10:00,46.2,32.7,30.07,North,-999,0.0,0.0,59,0.00,,,-99.99,0,WeatherLink 5.7,2013-05-11 06:10:00,
2013-05-11 00:15:00,45.9,32.8,30.07,North,-999,0.0,0.0,60,0.00,,,-99.99,0,WeatherLink 5.7,2013-05-11 06:15:00,
2013-05-11 00:20:00,45.5,32.8,30.12,SE,135,0.0,3.0,61,0.00,,,-99.99,0,WeatherLink 5.7,2013-05-11 06:20:00,
2013-05-11 00:25:00,45.2,32.5,30.12,SE,135,1.0,3.0,61,0.00,,,-99.99,0,WeatherLink 5.7,2013-05-11 06:25:00,
2013-05-11 00:30:00,45.1,32.8,30.12,SE,135,1.0,3.0,62,0.00,,,-99.99,0,WeatherLink 5.7,2013-05-11 06:30:00,
2013-05-11 00:35:00,44.8,32.6,30.14,East,90,0.0,2.0,62,0.00,,,-99.99,0,WeatherLink 5.7,2013-05-11 06:35:00,
2013-05-11 00:40:00,44.6,32.0,30.14,East,90,0.0,3.0,61,0.00,,,-99.99,0,WeatherLink 5.7,2013-05-11 06:40:00,
2013-05-11 00:50:00,44.5,32.3,30.14,East,90,2.0,5.0,62,0.00,,,-99.99,0,WeatherLink 5.7,2013-05-11 06:50:00,
2013-05-11 00:55:00,44.5,31.9,30.14,ESE,112,2.0,4.0,61,0.00,,,-99.99,0,WeatherLink 5.7,2013-05-11 06:55:00,
2013-05-11 01:00:00,44.3,31.7,30.14,ESE,112,2.0,4.0,61,0.00,,,-99.99,0,WeatherLink 5.7,2013-05-11 07:00:00,
2013-05-11 01:10:00,43.6,32.6,30.15,ESE,112,0.0,2.0,65,0.00,,,-99.99,0,WeatherLink 5.7,2013-05-11 07:10:00,
2013-05-11 01:15:00,43.3,31.9,30.15,ESE,112,1.0,3.0,64,0.00,,,-99.99,0,WeatherLink 5.7,2013-05-11 07:15:00,
2013-05-11 01:20:00,43.0,32.0,30.11,ESE,112,1.0,4.0,65,0.00,,,-99.99,0,WeatherLink 5.7,2013-05-11 07:20:00,
2013-05-11 01:30:00,43.2,32.6,30.11,ESE,112,2.0,4.0,66,0.00,,,-99.99,0,WeatherLink 5.7,2013-05-11 07:30:00,
2013-05-11 01:35:00,43.0,32.8,30.12,ESE,112,1.0,3.0,67,0.00,,,-99.99,0,WeatherLink 5.7,2013-05-11 07:35:00,
2013-05-11 01:45:00,42.5,32.3,30.12,ESE,112,0.0,3.0,67,0.00,,,-99.99,0,WeatherLink 5.7,2013-05-11 07:45:00,
2013-05-11 01:55:00,42.5,33.0,30.12,ESE,112,2.0,5.0,69,0.00,,,-99.99,0,WeatherLink 5.7,2013-05-11 07:55:00,
2013-05-11 02:00:00,42.6,33.1,30.12,ESE,112,0.0,1.0,69,0.00,,,-99.99,0,WeatherLink 5.7,2013-05-11 08:00:00,
2013-05-11 02:10:00,41.9,32.8,30.12,ESE,112,1.0,4.0,70,0.00,,,-99.99,0,WeatherLink 5.7,2013-05-11 08:10:00,
2013-05-11 02:20:00,41.2,33.2,30.14,ESE,112,2.0,4.0,73,0.00,,,-99.99,0,WeatherLink 5.7,2013-05-11 08:20:00,
2013-05-11 02:25:00,41.2,33.2,30.14,ESE,112,1.0,5.0,73,0.00,,,-99.99,0,WeatherLink 5.7,2013-05-11 08:25:00,
2013-05-11 02:35:00,40.9,32.6,30.14,ESE,112,1.0,3.0,72,0.00,,,-99.99,0,WeatherLink 5.7,2013-05-11 08:35:00,
2013-05-11 02:40:00,40.6,32.6,30.14,ESE,112,0.0,2.0,73,0.00,,,-99.99,0,WeatherLink 5.7,2013-05-11 08:40:00,
2013-05-11 02:45:00,40.3,32.3,30.14,ESE,112,1.0,3.0,73,0.00,,,-99.99,0,WeatherLink 5.7,2013-05-11 08:45:00,
2013-05-11 02:50:00,40.3,32.7,30.16,ESE,112,0.0,3.0,74,0.00,,,-99.99,0,WeatherLink 5.7,2013-05-11 08:50:00,
2013-05-11 03:00:00,40.2,32.6,30.16,ESE,112,0.0,1.0,74,0.00,,,-99.99,0,WeatherLink 5.7,2013-05-11 09:00:00,
2013-05-11 03:10:00,39.9,32.3,30.16,ESE,112,0.0,2.0,74,0.00,,,-99.99,0,WeatherLink 5.7,2013-05-11 09:10:00,
2013-05-11 03:15:00,39.9,32.3,30.16,ESE,112,1.0,3.0,74,0.00,,,-99.99,0,WeatherLink 5.7,2013-05-11 09:15:00,
2013-05-11 03:25:00,39.6,32.7,30.18,North,-999,0.0,0.0,76,0.00,,,-99.99,0,WeatherLink 5.7,2013-05-11 09:25:00,
2013-05-11 03:35:00,39.3,32.4,30.19,North,-999,0.0,0.0,76,0.00,,,-99.99,0,WeatherLink 5.7,2013-05-11 09:35:00,
2013-05-11 03:40:00,39.0,32.1,30.19,ESE,112,0.0,2.0,76,0.00,,,-99.99,0,WeatherLink 5.7,2013-05-11 09:40:00,
2013-05-11 03:50:00,38.9,32.0,30.20,ESE,112,1.0,3.0,76,0.00,,,-99.99,0,WeatherLink 5.7,2013-05-11 09:50:00,
2013-05-11 03:55:00,38.9,32.0,30.20,ESE,112,2.0,4.0,76,0.00,,,-99.99,0,WeatherLink 5.7,2013-05-11 09:55:00,
2013-05-11 04:00:00,38.5,31.6,30.20,ESE,112,1.0,3.0,76,0.00,,,-99.99,0,WeatherLink 5.7,2013-05-11 10:00:00,
2013-05-11 04:10:00,38.8,31.9,30.21,ESE,112,1.0,4.0,76,0.00,,,-99.99,0,WeatherLink 5.7,2013-05-11 10:10:00,
2013-05-11 04:15:00,38.6,31.7,30.21,ESE,112,1.0,4.0,76,0.00,,,-99.99,0,WeatherLink 5.7,2013-05-11 10:15:00,
2013-05-11 04:20:00,38.3,31.4,30.17,ESE,112,1.0,4.0,76,0.00,,,-99.99,0,WeatherLink 5.7,2013-05-11 10:20:00,
2013-05-11 04:30:00,37.9,31.0,30.17,ESE,112,2.0,3.0,76,0.00,,,-99.99,0,WeatherLink 5.7,2013-05-11 10:30:00,
2013-05-11 04:35:00,37.7,31.1,30.17,ESE,112,1.0,3.0,77,0.00,,,-99.99,0,WeatherLink 5.7,2013-05-11 10:35:00,
2013-05-11 04:45:00,37.5,31.3,30.17,East,90,0.0,3.0,78,0.00,,,-99.99,0,WeatherLink 5.7,2013-05-11 10:45:00,
2013-05-11 04:50:00,37.6,31.4,30.17,East,90,2.0,4.0,78,0.00,,,-99.99,0,WeatherLink 5.7,2013-05-11 10:50:00,
2013-05-11 05:00:00,37.5,30.9,30.17,East,90,2.0,4.0,77,0.00,,,-99.99,0,WeatherLink 5.7,2013-05-11 11:00:00,
2013-05-11 05:10:00,37.3,30.4,30.17,East,90,2.0,4.0,76,0.00,,,-99.99,0,WeatherLink 5.7,2013-05-11 11:10:00,
2013-05-11 05:20:00,37.0,30.5,30.18,SE,135,2.0,5.0,77,0.00,,,-99.99,0,WeatherLink 5.7,2013-05-11 11:20:00,
2013-05-11 05:25:00,36.9,30.4,30.18,SE,135,2.0,4.0,77,0.00,,,-99.99,0,WeatherLink 5.7,2013-05-11 11:25:00,
2013-05-11 05:35:00,36.5,30.6,30.18,East,90,1.0,4.0,79,0.00,,,-99.99,0,WeatherLink 5.7,2013-05-11 11:35:00,
2013-05-11 05:40:00,36.3,30.4,30.18,East,90,1.0,3.0,79,0.00,,,-99.99,0,WeatherLink 5.7,2013-05-11 11:40:00,
2013-05-11 05:50:00,36.2,30.3,30.20,North,-999,0.0,0.0,79,0.00,,,-99.99,0,WeatherLink 5.7,2013-05-11 11:50:00,
2013-05-11 06:00:00,36.0,30.1,30.20,East,90,0.0,2.0,79,0.00,,,-99.99,0,WeatherLink 5.7,2013-05-11 12:00:00,
2013-05-11 06:10:00,36.0,30.4,30.20,East,90,1.0,3.0,80,0.00,,,-99.99,6,WeatherLink 5.7,2013-05-11 12:10:00,
2013-05-11 06:15:00,35.9,30.3,30.20,North,-999,0.0,0.0,80,0.00,,,-99.99,7,WeatherLink 5.7,2013-05-11 12:15:00,
2013-05-11 06:20:00,35.9,30.3,30.22,North,-999,0.0,0.0,80,0.00,,,-99.99,9,WeatherLink 5.7,2013-05-11 12:20:00,
2013-05-11 06:30:00,36.0,30.4,30.22,ESE,112,3.0,5.0,80,0.00,,,-99.99,12,WeatherLink 5.7,2013-05-11 12:30:00,
2013-05-11 06:35:00,36.0,30.4,30.22,ESE,112,2.0,4.0,80,0.00,,,-99.99,13,WeatherLink 5.7,2013-05-11 12:35:00,
2013-05-11 06:40:00,36.0,30.4,30.22,SSE,157,2.0,5.0,80,0.00,,,-99.99,14,WeatherLink 5.7,2013-05-11 12:40:00,
2013-05-11 06:45:00,35.9,30.3,30.22,SSE,157,0.0,2.0,80,0.00,,,-99.99,16,WeatherLink 5.7,2013-05-11 12:45:00,
2013-05-11 06:50:00,35.7,30.1,30.24,SE,135,0.0,3.0,80,0.00,,,-99.99,16,WeatherLink 5.7,2013-05-11 12:50:00,
2013-05-11 06:55:00,35.7,30.4,30.24,SE,135,0.0,3.0,81,0.00,,,-99.99,18,WeatherLink 5.7,2013-05-11 12:55:00,
2013-05-11 07:00:00,35.6,30.3,30.24,SE,135,1.0,4.0,81,0.00,,,-99.99,18,WeatherLink 5.7,2013-05-11 13:00:00,
2013-05-11 07:10:00,35.6,30.3,30.24,East,90,2.0,4.0,81,0.00,,,-99.99,19,WeatherLink 5.7,2013-05-11 13:10:00,
2013-05-11 07:15:00,35.7,30.4,30.24,East,90,3.0,5.0,81,0.00,,,-99.99,21,WeatherLink 5.7,2013-05-11 13:15:00,
2013-05-11 07:20:00,35.9,30.6,30.27,ESE,112,2.0,5.0,81,0.00,,,-99.99,21,WeatherLink 5.7,2013-05-11 13:20:00,
2013-05-11 07:30:00,36.0,30.7,30.27,North,-999,0.0,0.0,81,0.00,,,-99.99,23,WeatherLink 5.7,2013-05-11 13:30:00,
2013-05-11 07:40:00,37.2,31.6,30.27,ESE,112,1.0,3.0,80,0.00,,,-99.99,186,WeatherLink 5.7,2013-05-11 13:40:00,
2013-05-11 07:45:00,38.0,32.1,30.27,East,90,1.0,4.0,79,0.00,,,-99.99,267,WeatherLink 5.7,2013-05-11 13:45:00,
2013-05-11 07:55:00,38.8,31.9,30.25,East,90,4.0,7.0,76,0.00,,,-99.99,303,WeatherLink 5.7,2013-05-11 13:55:00,
2013-05-11 08:00:00,39.5,31.9,30.25,East,90,4.0,7.0,74,0.00,,,-99.99,318,WeatherLink 5.7,2013-05-11 14:00:00,
2013-05-11 08:10:00,41.2,32.9,30.23,East,90,3.0,6.0,72,0.00,,,-99.99,356,WeatherLink 5.7,2013-05-11 14:10:00,
2013-05-11 08:15:00,42.5,33.0,30.23,East,90,2.0,4.0,69,0.00,,,-99.99,374,WeatherLink 5.7,2013-05-11 14:15:00,
2013-05-11 08:20:00,43.6,32.6,30.22,East,90,2.0,5.0,65,0.00,,,-99.99,392,WeatherLink 5.7,2013-05-11 14:20:00,
2013-05-11 08:25:00,44.5,32.7,30.22,East,90,2.0,5.0,63,0.00,,,-99.99,410,WeatherLink 5.7,2013-05-11 14:25:00,
2013-05-11 08:30:00,45.1,32.8,30.22,East,90,2.0,6.0,62,0.00,,,-99.99,426,WeatherLink 5.7,2013-05-11 14:30:00,
2013-05-11 08:40:00,46.4,33.3,30.23,East,90,1.0,4.0,60,0.00,,,-99.99,462,WeatherLink 5.7,2013-05-11 14:40:00,
2013-05-11 08:45:00,46.5,32.5,30.23,East,90,3.0,6.0,58,0.00,,,-99.99,480,WeatherLink 5.7,2013-05-11 14:45:00,
2013-05-11 08:55:00,48.2,32.8,30.21,East,90,2.0,5.0,55,0.00,,,-99.99,515,WeatherLink 5.7,2013-05-11 14:55:00,
2013-05-11 09:00:00,49.2,33.7,30.21,East,90,1.0,4.0,55,0.00,,,-99.99,532,WeatherLink 5.7,2013-05-11 15:00:00,
2013-05-11 09:10:00,49.5,33.1,30.19,East,90,1.0,6.0,53,0.00,,,-99.99,564,WeatherLink 5.7,2013-05-11 15:10:00,
2013-05-11 09:16:00,50.2,33.2,30.19,East,90,2.0,5.0,52,0.00,,,-99.99,582,WeatherLink 5.7,2013-05-11 15:16:00,
2013-05-11 09:25:00,52.0,32.9,30.18,East,90,1.0,4.0,48,0.00,,,-99.99,615,WeatherLink 5.7,2013-05-11 15:25:00,
2013-05-11 09:30:00,52.6,32.9,30.18,East,90,0.0,2.0,47,0.00,,,-99.99,636,WeatherLink 5.7,2013-05-11 15:30:00,
2013-05-11 09:40:00,53.5,31.5,30.17,East,90,1.0,6.0,43,0.00,,,-99.99,665,WeatherLink 5.7,2013-05-11 15:40:00,
2013-05-11 09:45:00,53.3,31.9,30.17,East,90,2.0,6.0,44,0.00,,,-99.99,672,WeatherLink 5.7,2013-05-11 15:45:00,
2013-05-11 09:55:00,54.4,31.8,30.16,ESE,112,1.0,3.0,42,0.00,,,-99.99,709,WeatherLink 5.7,2013-05-11 15:55:00,
2013-05-11 10:00:00,55.4,34.9,30.16,East,90,0.0,3.0,46,0.00,,,-99.99,736,WeatherLink 5.7,2013-05-11 16:00:00,
2013-05-11 10:10:00,56.9,32.2,30.12,East,90,0.0,2.0,39,0.00,,,-99.99,760,WeatherLink 5.7,2013-05-11 16:10:00,
2013-05-11 10:15:00,56.7,32.6,30.12,ESE,112,1.0,4.0,40,0.00,,,-99.99,779,WeatherLink 5.7,2013-05-11 16:15:00,
2013-05-11 10:20:00,56.4,31.7,30.15,East,90,1.0,4.0,39,0.00,,,-99.99,769,WeatherLink 5.7,2013-05-11 16:20:00,
2013-05-11 10:30:00,57.5,30.7,30.15,ESE,112,1.0,4.0,36,0.00,,,-99.99,750,WeatherLink 5.7,2013-05-11 16:30:00,
2013-05-11 10:35:00,57.7,30.2,30.13,East,90,1.0,4.0,35,0.00,,,-99.99,770,WeatherLink 5.7,2013-05-11 16:35:00,
2013-05-11 10:45:00,58.1,29.1,30.13,East,90,1.0,5.0,33,0.00,,,-99.99,760,WeatherLink 5.7,2013-05-11 16:45:00,
2013-05-11 10:50:00,59.0,30.6,30.12,East,90,0.0,3.0,34,0.00,,,-99.99,825,WeatherLink 5.7,2013-05-11 16:50:00,
2013-05-11 11:00:00,59.9,30.7,30.12,SE,135,0.0,4.0,33,0.00,,,-99.99,889,WeatherLink 5.7,2013-05-11 17:00:00,
2013-05-11 11:10:00,60.2,30.2,30.11,East,90,1.0,6.0,32,0.00,,,-99.99,897,WeatherLink 5.7,2013-05-11 17:10:00,
2013-05-11 11:15:00,60.9,30.8,30.11,East,90,0.0,4.0,32,0.00,,,-99.99,913,WeatherLink 5.7,2013-05-11 17:15:00,
2013-05-11 11:20:00,60.7,31.4,30.11,ESE,112,1.0,5.0,33,0.00,,,-99.99,909,WeatherLink 5.7,2013-05-11 17:20:00,
2013-05-11 11:30:00,61.3,29.6,30.11,ESE,112,0.0,1.0,30,0.00,,,-99.99,930,WeatherLink 5.7,2013-05-11 17:30:00,
2013-05-11 11:35:00,61.8,30.8,30.10,ESE,112,1.0,4.0,31,0.00,,,-99.99,964,WeatherLink 5.7,2013-05-11 17:35:00,
2013-05-11 11:45:00,63.1,29.4,30.10,NNW,337,0.0,1.0,28,0.00,,,-99.99,950,WeatherLink 5.7,2013-05-11 17:45:00,
2013-05-11 11:50:00,62.9,29.3,30.08,ESE,112,0.0,3.0,28,0.00,,,-99.99,984,WeatherLink 5.7,2013-05-11 17:50:00,
2013-05-11 11:55:00,63.7,29.1,30.08,ESE,112,0.0,1.0,27,0.00,,,-99.99,955,WeatherLink 5.7,2013-05-11 17:55:00,
2013-05-11 12:00:00,64.9,30.1,30.08,North,-999,0.0,0.0,27,0.00,,,-99.99,975,WeatherLink 5.7,2013-05-11 18:00:00,
2013-05-11 12:10:00,66.0,28.1,30.07,NNE,22,0.0,3.0,24,0.00,,,-99.99,1036,WeatherLink 5.7,2013-05-11 18:10:00,
2013-05-11 12:15:00,66.5,31.5,30.07,East,90,0.0,3.0,27,0.00,,,-99.99,976,WeatherLink 5.7,2013-05-11 18:15:00,
2013-05-11 12:25:00,66.1,28.2,30.07,East,90,0.0,4.0,24,0.00,,,-99.99,1040,WeatherLink 5.7,2013-05-11 18:25:00,
2013-05-11 12:30:00,67.0,27.9,30.07,NNW,337,1.0,4.0,23,0.00,,,-99.99,1058,WeatherLink 5.7,2013-05-11 18:30:00,
2013-05-11 12:35:00,67.0,27.9,30.07,NNW,337,2.0,7.0,23,0.00,,,-99.99,1043,WeatherLink 5.7,2013-05-11 18:35:00,
2013-05-11 12:40:00,66.8,27.8,30.07,East,90,1.0,4.0,23,0.00,,,-99.99,1049,WeatherLink 5.7,2013-05-11 18:40:00,
2013-05-11 12:50:00,67.3,28.2,30.06,East,90,0.0,3.0,23,0.00,,,-99.99,1028,WeatherLink 5.7,2013-05-11 18:50:00,
2013-05-11 12:55:00,67.8,27.5,30.06,NNW,337,1.0,5.0,22,0.00,,,-99.99,1134,WeatherLink 5.7,2013-05-11 18:55:00,
2013-05-11 13:00:00,67.5,29.4,30.06,NNW,337,1.0,6.0,24,0.00,,,-99.99,496,WeatherLink 5.7,2013-05-11 19:00:00,
2013-05-11 13:10:00,67.0,27.9,30.04,North,0,3.0,13.0,23,0.00,,,-99.99,340,WeatherLink 5.7,2013-05-11 19:10:00,
2013-05-11 13:15:00,66.5,29.6,30.04,NNW,337,1.0,7.0,25,0.00,,,-99.99,343,WeatherLink 5.7,2013-05-11 19:15:00,
2013-05-11 13:20:00,66.5,28.6,30.07,NNW,337,1.0,4.0,24,0.00,,,-99.99,274,WeatherLink 5.7,2013-05-11 19:20:00,
2013-05-11 13:25:00,66.1,28.2,30.07,NNW,337,1.0,7.0,24,0.00,,,-99.99,241,WeatherLink 5.7,2013-05-11 19:25:00,
2013-05-11 13:35:00,66.1,28.2,30.06,NW,315,1.0,6.0,24,0.00,,,-99.99,221,WeatherLink 5.7,2013-05-11 19:35:00,
2013-05-11 13:40:00,66.1,32.0,30.06,NW,315,1.0,5.0,28,0.00,,,-99.99,224,WeatherLink 5.7,2013-05-11 19:40:00,
2013-05-11 13:50:00,68.0,30.8,30.04,WNW,292,1.0,5.0,25,0.00,,,-99.99,1074,WeatherLink 5.7,2013-05-11 19:50:00,
2013-05-11 13:55:00,68.8,30.5,30.04,NW,315,1.0,6.0,24,0.00,,,-99.99,1112,WeatherLink 5.7,2013-05-11 19:55:00,
2013-05-11 14:00:00,69.8,28.1,30.04,NNW,337,1.0,7.0,21,0.00,,,-99.99,1144,WeatherLink 5.7,2013-05-11 20:00:00,
2013-05-11 14:10:00,68.8,28.4,30.03,NW,315,4.0,14.0,22,0.00,,,-99.99,1108,WeatherLink 5.7,2013-05-11 20:10:00,
2013-05-11 14:20:00,69.1,26.3,30.04,NNW,337,1.0,9.0,20,0.00,,,-99.99,1072,WeatherLink 5.7,2013-05-11 20:20:00,
2013-05-11 14:30:00,70.6,29.9,30.04,WNW,292,1.0,7.0,22,0.00,,,-99.99,1035,WeatherLink 5.7,2013-05-11 20:30:00,
2013-05-11 14:35:00,71.2,30.4,30.02,NNW,337,2.0,10.0,22,0.00,,,-99.99,1060,WeatherLink 5.7,2013-05-11 20:35:00,
2013-05-11 14:40:00,69.6,27.9,30.02,NNW,337,4.0,7.0,21,0.00,,,-99.99,590,WeatherLink 5.7,2013-05-11 20:40:00,
2013-05-11 14:50:00,68.5,27.0,30.03,NW,315,1.0,7.0,21,0.00,,,-99.99,230,WeatherLink 5.7,2013-05-11 20:50:00,
2013-05-11 14:55:00,68.3,28.0,30.03,NW,315,0.0,4.0,22,0.00,,,-99.99,239,WeatherLink 5.7,2013-05-11 20:55:00,
2013-05-11 15:00:00,68.1,28.9,30.03,NW,315,1.0,5.0,23,0.00,,,-99.99,246,WeatherLink 5.7,2013-05-11 21:00:00,
2013-05-11 15:10:00,68.3,28.0,30.02,NNW,337,0.0,4.0,22,0.00,,,-99.99,259,WeatherLink 5.7,2013-05-11 21:10:00,
2013-05-11 15:15:00,68.1,27.8,30.02,ESE,112,1.0,6.0,22,0.00,,,-99.99,781,WeatherLink 5.7,2013-05-11 21:15:00,
2013-05-11 15:20:00,69.1,33.7,30.01,WNW,292,1.0,6.0,27,0.00,,,-99.99,1030,WeatherLink 5.7,2013-05-11 21:20:00,
2013-05-11 15:30:00,69.1,27.5,30.01,ESE,112,1.0,8.0,21,0.00,,,-99.99,814,WeatherLink 5.7,2013-05-11 21:30:00,
2013-05-11 15:35:00,68.8,28.4,30.02,WNW,292,0.0,3.0,22,0.00,,,-99.99,266,WeatherLink 5.7,2013-05-11 21:35:00,
2013-05-11 15:45:00,68.6,28.2,30.02,East,90,4.0,11.0,22,0.00,,,-99.99,875,WeatherLink 5.7,2013-05-11 21:45:00,
2013-05-11 15:50:00,69.6,30.1,30.01,North,0,2.0,10.0,23,0.00,,,-99.99,717,WeatherLink 5.7,2013-05-11 21:50:00,
2013-05-11 16:00:00,70.1,30.6,30.01,NNW,337,2.0,6.0,23,0.00,,,-99.99,892,WeatherLink 5.7,2013-05-11 22:00:00,
2013-05-11 16:10:00,71.7,33.0,30.00,NNW,337,0.0,3.0,24,0.00,,,-99.99,796,WeatherLink 5.7,2013-05-11 22:10:00,
2013-05-11 16:15:00,71.8,29.7,30.00,NW,315,1.0,6.0,21,0.00,,,-99.99,772,WeatherLink 5.7,2013-05-11 22:15:00,
2013-05-11 16:25:00,70.6,27.5,30.00,NW,315,2.0,6.0,20,0.00,,,-99.99,741,WeatherLink 5.7,2013-05-11 22:25:00,
2013-05-11 16:35:00,70.3,26.1,30.01,West,270,2.0,9.0,19,0.00,,,-99.99,710,WeatherLink 5.7,2013-05-11 22:35:00,
2013-05-11 16:40:00,71.2,29.2,30.01,NNW,337,0.0,4.0,21,0.00,,,-99.99,692,WeatherLink 5.7,2013-05-11 22:40:00,
2013-05-11 16:45:00,71.3,25.6,30.01,NW,315,2.0,6.0,18,0.00,,,-99.99,677,WeatherLink 5.7,2013-05-11 22:45:00,
2013-05-11 17:55:00,71.2,25.5,29.99,NNW,337,3.0,12.0,18,0.00,,,-99.99,630,WeatherLink 5.7,2013-05-11 23:55:00,
2013-05-11 18:00:00,70.6,27.5,29.99,NW,315,5.0,11.0,20,0.00,,,-99.99,613,WeatherLink 5.7,2013-05-12 00:00:00,
2013-05-11 18:05:00,70.8,26.5,29.99,NNW,337,4.0,10.0,19,0.00,,,-99.99,598,WeatherLink 5.7,2013-05-12 00:05:00,
2013-05-11 18:10:00,70.6,26.3,29.99,WNW,292,1.0,5.0,19,0.00,,,-99.99,581,WeatherLink 5.7,2013-05-12 00:10:00,
2013-05-11 18:15:00,71.3,28.1,29.99,WSW,247,1.0,10.0,20,0.00,,,-99.99,570,WeatherLink 5.7,2013-05-12 00:15:00,
2013-05-11 18:20:00,71.8,28.5,29.99,West,270,1.0,6.0,20,0.00,,,-99.99,560,WeatherLink 5.7,2013-05-12 00:20:00,
2013-05-11 18:25:00,71.8,28.5,29.99,NNW,337,1.0,6.0,20,0.00,,,-99.99,522,WeatherLink 5.7,2013-05-12 00:25:00,
2013-05-11 18:30:00,71.8,27.3,29.99,NNW,337,2.0,8.0,19,0.00,,,-99.99,520,WeatherLink 5.7,2013-05-12 00:30:00,
2013-05-11 18:35:00,70.8,26.5,29.99,NW,315,2.0,9.0,19,0.00,,,-99.99,185,WeatherLink 5.7,2013-05-12 00:35:00,
2013-05-11 18:45:00,71.5,28.3,29.99,NW,315,2.0,14.0,20,0.00,,,-99.99,663,WeatherLink 5.7,2013-05-12 00:45:00,
2013-05-11 18:50:00,67.6,27.4,30.02,NW,315,1.0,6.0,22,0.00,,,-99.99,108,WeatherLink 5.7,2013-05-12 00:50:00,
2013-05-11 18:55:00,67.3,26.0,30.02,NW,315,2.0,6.0,21,0.00,,,-99.99,72,WeatherLink 5.7,2013-05-12 00:55:00,
2013-05-11 19:00:00,67.1,26.9,30.02,NW,315,1.0,4.0,22,0.00,,,-99.99,44,WeatherLink 5.7,2013-05-12 01:00:00,
2013-05-11 19:10:00,66.6,26.5,30.04,NW,315,1.0,4.0,22,0.00,,,-99.99,33,WeatherLink 5.7,2013-05-12 01:10:00,
2013-05-11 19:20:00,65.8,26.9,30.01,NNW,337,1.0,4.0,23,0.00,,,-99.99,32,WeatherLink 5.7,2013-05-12 01:20:00,
2013-05-11 19:30:00,65.5,27.7,30.01,NW,315,0.0,4.0,24,0.00,,,-99.99,31,WeatherLink 5.7,2013-05-12 01:30:00,
2013-05-11 19:35:00,65.3,27.5,30.03,North,-999,0.0,0.0,24,0.00,,,-99.99,29,WeatherLink 5.7,2013-05-12 01:35:00,
2013-05-11 19:40:00,64.9,28.2,30.03,North,-999,0.0,0.0,25,0.00,,,-99.99,26,WeatherLink 5.7,2013-05-12 01:40:00,
2013-05-11 19:45:00,64.5,27.9,30.03,North,-999,0.0,0.0,25,0.00,,,-99.99,25,WeatherLink 5.7,2013-05-12 01:45:00,
2013-05-11 19:55:00,63.1,29.4,30.02,North,-999,0.0,0.0,28,0.00,,,-99.99,20,WeatherLink 5.7,2013-05-12 01:55:00,
2013-05-11 20:00:00,62.6,29.0,30.02,North,-999,0.0,0.0,28,0.00,,,-99.99,16,WeatherLink 5.7,2013-05-12 02:00:00,
2013-05-11 20:10:00,61.8,30.0,30.05,NW,315,0.0,1.0,30,0.00,,,-99.99,9,WeatherLink 5.7,2013-05-12 02:10:00,
2013-05-11 20:15:00,61.2,30.3,30.05,North,-999,0.0,0.0,31,0.00,,,-99.99,3,WeatherLink 5.7,2013-05-12 02:15:00,
2013-05-11 20:25:00,59.8,29.9,30.00,NW,315,0.0,2.0,32,0.00,,,-99.99,0,WeatherLink 5.7,2013-05-12 02:25:00,
2013-05-11 20:35:00,59.8,29.1,30.00,NW,315,0.0,2.0,31,0.00,,,-99.99,0,WeatherLink 5.7,2013-05-12 02:35:00,
2013-05-11 20:40:00,59.8,31.3,30.02,North,-999,0.0,0.0,34,0.00,,,-99.99,0,WeatherLink 5.7,2013-05-12 02:40:00,
2013-05-11 20:50:00,58.9,30.6,30.02,NW,315,0.0,1.0,34,0.00,,,-99.99,0,WeatherLink 5.7,2013-05-12 02:50:00,
2013-05-11 20:55:00,58.4,31.5,30.02,NW,315,0.0,1.0,36,0.00,,,-99.99,0,WeatherLink 5.7,2013-05-12 02:55:00,
2013-05-11 21:00:00,58.0,31.2,30.02,North,-999,0.0,0.0,36,0.00,,,-99.99,0,WeatherLink 5.7,2013-05-12 03:00:00,
2013-05-11 21:10:00,56.9,31.5,30.04,North,-999,0.0,0.0,38,0.00,,,-99.99,0,WeatherLink 5.7,2013-05-12 03:10:00,
2013-05-11 21:15:00,56.6,30.6,30.04,North,-999,0.0,0.0,37,0.00,,,-99.99,0,WeatherLink 5.7,2013-05-12 03:15:00,
2013-05-11 21:20:00,56.6,32.5,30.00,NW,315,0.0,1.0,40,0.00,,,-99.99,0,WeatherLink 5.7,2013-05-12 03:20:00,
2013-05-11 21:30:00,55.9,33.1,30.00,NW,315,0.0,2.0,42,0.00,,,-99.99,0,WeatherLink 5.7,2013-05-12 03:30:00,
2013-05-11 21:35:00,55.9,31.9,30.01,NW,315,0.0,2.0,40,0.00,,,-99.99,0,WeatherLink 5.7,2013-05-12 03:35:00,
2013-05-11 21:40:00,56.0,32.6,30.01,East,90,0.0,3.0,41,0.00,,,-99.99,0,WeatherLink 5.7,2013-05-12 03:40:00,
2013-05-11 21:50:00,56.3,30.3,30.01,SSW,202,0.0,5.0,37,0.00,,,-99.99,0,WeatherLink 5.7,2013-05-12 03:50:00,
2013-05-11 21:55:00,56.6,30.6,30.01,SW,225,0.0,1.0,37,0.00,,,-99.99,0,WeatherLink 5.7,2013-05-12 03:55:00,
2013-05-11 22:00:00,56.6,31.3,30.01,North,-999,0.0,0.0,38,0.00,,,-99.99,0,WeatherLink 5.7,2013-05-12 04:00:00,
2013-05-11 22:05:00,56.2,31.5,30.02,SSW,202,0.0,3.0,39,0.00,,,-99.99,0,WeatherLink 5.7,2013-05-12 04:05:00,
2013-05-11 22:10:00,55.7,31.1,30.02,North,-999,0.0,0.0,39,0.00,,,-99.99,0,WeatherLink 5.7,2013-05-12 04:10:00,
2013-05-11 22:15:00,55.4,32.1,30.02,SSW,202,0.0,2.0,41,0.00,,,-99.99,0,WeatherLink 5.7,2013-05-12 04:15:00,
2013-05-11 22:20:00,55.1,31.8,30.01,North,-999,0.0,0.0,41,0.00,,,-99.99,0,WeatherLink 5.7,2013-05-12 04:20:00,
2013-05-11 22:25:00,54.8,32.7,30.01,North,-999,0.0,0.0,43,0.00,,,-99.99,0,WeatherLink 5.7,2013-05-12 04:25:00,
2013-05-11 22:30:00,54.5,32.4,30.01,North,-999,0.0,0.0,43,0.00,,,-99.99,0,WeatherLink 5.7,2013-05-12 04:30:00,
2013-05-11 22:35:00,54.1,32.6,30.01,South,180,0.0,1.0,44,0.00,,,-99.99,0,WeatherLink 5.7,2013-05-12 04:35:00,
2013-05-11 22:45:00,53.8,31.8,30.01,South,180,0.0,3.0,43,0.00,,,-99.99,0,WeatherLink 5.7,2013-05-12 04:45:00,
2013-05-11 22:50:00,53.9,31.9,30.02,South,180,0.0,2.0,43,0.00,,,-99.99,0,WeatherLink 5.7,2013-05-12 04:50:00,
2013-05-11 23:00:00,53.9,31.9,30.02,South,180,0.0,3.0,43,0.00,,,-99.99,0,WeatherLink 5.7,2013-05-12 05:00:00,
2013-05-11 23:10:00,53.2,31.8,30.02,South,180,0.0,1.0,44,0.00,,,-99.99,0,WeatherLink 5.7,2013-05-12 05:10:00,
2013-05-11 23:15:00,52.8,32.6,30.02,South,180,0.0,2.0,46,0.00,,,-99.99,0,WeatherLink 5.7,2013-05-12 05:15:00,
2013-05-11 23:25:00,52.5,32.8,29.99,North,-999,0.0,0.0,47,0.00,,,-99.99,0,WeatherLink 5.7,2013-05-12 05:25:00,
2013-05-11 23:30:00,52.3,32.6,29.99,South,180,0.0,2.0,47,0.00,,,-99.99,0,WeatherLink 5.7,2013-05-12 05:30:00,
2013-05-11 23:35:00,52.2,32.6,29.99,South,180,0.0,2.0,47,0.00,,,-99.99,0,WeatherLink 5.7,2013-05-12 05:35:00,
2013-05-11 23:40:00,52.2,32.6,29.99,East,90,1.0,4.0,47,0.00,,,-99.99,0,WeatherLink 5.7,2013-05-12 05:40:00,
2013-05-11 23:50:00,51.9,32.8,30.00,SE,135,0.0,3.0,48,0.00,,,-99.99,0,WeatherLink 5.7,2013-05-12 05:50:00,
2013-05-11 23:55:00,51.9,32.3,30.00,SE,135,1.0,4.0,47,0.00,,,-99.99,0,WeatherLink 5.7,2013-05-12 05:55:00,